Location: Strada George Coșbuc
(47.6577°N, 23.5639°E)
Time: 01:20:52
(UTC+03:00)

ISS - Pass Details

Date: 19 September 2017
Orbit: 401 x 407 km, 51.6° (Epoch: 23 September)

Event Time Altitude Azimuth Distance (km) Brightness Sun altitude
Exits shadow 06:05:33 18° 262° (W) 1,064 -2.4 -11.3°
Maximum altitude 06:07:08 27° 218° (SW) 815 -2.7 -11.0°
Drops below altitude 10° 06:09:58 10° 158° (SSE) 1,462 -0.9 -10.5°
Sets 06:12:13 0° 146° (SE) 2,318 0.3 -10.2°
